Regional Weather Roundup
Issued by NWS Jackson, KY

Home | Current Version | Previous Version | Graphics & Text | Print | Product List | Glossary On
Versions: 1 2 3 4 5 6 7 8 9 10 11 12 13 14 15 16 17 18 19 20 21 22 23 24 25 26 27 28 29 30 31 32 33 34 35 36 37 38 39 40 41 42 43 44 45 46 47 48 49 50
000
ASUS43 KJKL 210710
RWRJKL

EAST KENTUCKY HOURLY WEATHER ROUNDUP
NATIONAL WEATHER SERVICE JACKSON KY
300 AM EDT TUE OCT 21 2014

NOTE: "FAIR" INDICATES FEW OR NO CLOUDS BELOW 12,000 FEET WITH
NO SIGNIFICANT WEATHER AND/OR OBSTRUCTIONS TO VISIBILITY.

* THESE REPORTS ARE NOT UNDER NWS QUALITY CONTROL AND MAY NOT
  REPORT WEATHER SUCH AS PRECIPITATION AND FOG.

KYZ079-080-083-085-087-088-110-112-115-119-120-210800
...EASTERN KENTUCKY...

CITY           SKY/WX    TMP DP  RH WIND       PRES   REMARKS
JACKSON        MOCLDY    51  48  89 VRB3      29.95F
LONDON         PTCLDY    50  46  86 CALM      29.97S
SOMERSET*      CLEAR     46  46 100 CALM      29.98S
MONTICELLO*    CLEAR     53  49  86 CALM      30.00S
WILLIAMSBURG*    N/A    N/A N/A N/A CALM        N/A
MIDDLESBORO*   CLOUDY    47  47  99 CALM      29.99S
HARLAN APT*    CLOUDY    46  46 100 CALM      29.98S
HAZARD APT*    CLOUDY    52  50  93 CALM      29.96S
BLACK MTN*       N/A     46  46 100 W2          N/A
PIKEVILLE APT* CLOUDY    54  46  76 W7        29.96R
BIG SANDY*     LGT RAIN  53  50  87 SW7       29.95S
MOREHEAD APT*  CLOUDY    52  50  93 SW8       29.95S
$$

KYZ035-036-041-042-044-050-067-078-099-210800
...CENTRAL KENTUCKY...

CITY           SKY/WX    TMP DP  RH WIND       PRES   REMARKS
MT STERLING*   CLEAR     50  48  93 SW6       29.95S
FLEMING/MASON* PTCLDY    48  48 100 SW3       29.93S
DANVILLE*      MOCLDY    54  50  87 W5        29.97R
RICHMOND*      CLEAR     52  48  87 SW7       29.95R
LEXINGTON      MOCLDY    53  49  86 W5        29.94S
FRANKFORT      MOCLDY    52  49  89 W3        29.94R
$$

KYZ091>093-OHZ055-061-077-WVZ005-015-034-035-042-210800
...SOUTHERN OHIO/WEST VIRGINIA...

CITY           SKY/WX    TMP DP  RH WIND       PRES   REMARKS
COVINGTON      PTCLDY    52  47  83 NW7       29.92S
COLUMBUS       MOCLDY    46  45  96 CALM      29.89R FOG
DAYTON         CLOUDY    52  49  89 NW8       29.92S
WILMINGTON     CLOUDY    52  49  89 NW6       29.91S
HUNTINGTON     CLOUDY    50  49  96 SW3       29.92S
CHARLESTON     LGT RAIN  52  50  93 SW10      29.93R
PINEVILLE*     FOG       47  47 100 MISG      30.00S VSB 1/2
BECKLEY        CLEAR     49  44  83 SW9       29.95S
BLUEFIELD      MOCLDY    52  44  74 SW5       29.97S
$$

VAZ002-007-008-TNZ017-027-036-066-071-210800
...SOUTHWEST VIRGINIA/EAST TENNESSEE...

CITY           SKY/WX    TMP DP  RH WIND       PRES   REMARKS
WISE*          CLOUDY    50  50 100 W7        30.00R
JONESVILLE*    PTSUNNY   45  45 100 CALM      30.01S
ABINGDON*      CLEAR     51  50  97 CALM      29.99S
BRISTOL        CLEAR     47  46  97 CALM      29.99F
KNOXVILLE      MOCLDY    53  49  86 SW7       30.00S
OAK RIDGE      PTCLDY    53  49  86 SW3       30.01S
CROSSVILLE     PTCLDY    52  46  80 W7        30.02F
NASHVILLE      CLEAR     53  49  86 CALM      30.01S
$$

...KEY TO REMARKS...
VSB - VISIBILITY IN MILES
WCI - WIND CHILL INDEX
HX  - HEAT INDEX

$$



USA.gov is the U.S. government's official web portal to all federal, state and local government web resources and services.